Wind_Speed
25 24 20 19 19 26 26 31 21 24 26 22 15 10 12 16 11 10 13 14 13 12 10 15 21 24 25 24 23 18 15 14 15 15 16 18 20 22 24 24 24 26 30 30
25 27 28 29 28 20 28 29 26 24 31 19 8 7 5 12 14 15 14 16 16 13 12 12 19 23 23 22 20 16 15 15 16 15 15 18 21 23 22 24 23 26 27 28
20 26 26 27 30 28 21 20 21 23 35 7 14 12 15 10 8 8 10 11 14 15 13 17 21 25 24 22 19 17 17 15 11 14 15 18 19 19 21 22 25 26 27 26
13 21 33 19 22 23 21 25 23 22 25 17 17 10 9 6 8 8 8 8 9 10 14 21 23 21 20 20 18 15 12 11 12 13 15 16 16 19 22 24 24 25 27 27
9 15 19 18 22 16 13 15 17 23 26 24 18 7 9 8 8 8 7 7 8 19 21 23 22 21 19 16 13 11 10 12 13 13 12 14 17 21 23 24 25 26 25 26
12 6 10 19 15 7 4 15 9 11 22 20 10 12 10 10 9 8 7 12 13 22 23 24 21 20 18 14 12 11 12 14 13 10 13 15 19 22 23 23 24 25 25 24
10 6 10 11 16 6 13 9 4 6 18 13 10 10 5 9 9 8 10 14 21 23 19 23 23 20 18 16 15 14 15 11 10 11 13 16 21 21 22 21 23 26 22 25
4 3 13 17 16 6 11 21 14 11 8 3 8 8 8 9 10 11 12 13 20 18 20 21 23 20 16 16 14 13 12 11 12 12 16 17 20 22 20 23 21 21 22 18
4 4 6 14 7 12 19 24 17 11 10 5 7 5 7 7 9 9 13 14 20 20 19 19 19 19 16 14 12 10 9 10 13 15 16 18 20 21 21 18 18 17 17 17
4 15 18 16 18 12 7 15 19 14 10 6 4 5 7 7 7 8 9 12 18 19 15 16 18 17 15 12 9 9 10 12 13 14 17 19 18 18 20 19 10 14 16 19
22 25 14 15 14 20 15 17 14 12 8 3 3 4 5 6 7 7 9 16 19 16 15 17 17 14 13 9 7 8 9 12 14 15 16 16 17 18 20 13 9 18 21 21
17 13 15 17 10 14 10 12 10 9 8 6 8 7 6 6 7 8 10 17 17 17 16 14 13 11 8 8 8 8 10 12 13 15 16 15 17 20 19 14 20 24 24 23
23 19 24 24 20 22 21 24 16 9 10 6 6 6 7 6 9 14 15 17 16 17 18 14 11 8 6 6 7 9 11 12 13 15 16 19 18 13 15 20 20 19 21 20
23 17 21 21 15 17 21 20 17 14 14 8 7 9 7 7 10 14 14 19 21 19 16 13 9 6 6 7 7 9 11 13 14 16 15 12 10 16 18 17 15 20 20 20
25 20 23 23 22 22 20 14 15 14 17 9 9 8 8 11 12 12 19 21 20 18 14 11 8 7 6 7 7 8 11 14 15 14 13 15 14 18 18 19 17 17 21 19
19 16 18 18 16 18 18 13 16 15 6 6 8 7 9 13 16 18 22 23 18 9 13 11 10 7 5 4 5 9 12 14 13 11 11 14 15 17 17 16 14 17 16 16
15 7 11 14 14 14 16 17 16 7 7 10 11 15 17 17 16 15 18 20 17 16 13 11 7 5 4 2 6 9 8 8 13 14 14 13 15 15 11 17 17 16 18 20
3 3 4 8 9 13 17 17 11 10 9 12 13 16 15 15 13 15 18 16 13 11 10 9 9 7 3 3 4 4 9 11 12 13 12 10 13 15 14 16 16 15 18 18
14 13 12 13 15 14 16 17 11 10 15 17 14 14 16 18 21 21 21 18 13 10 11 13 8 2 1 1 2 5 8 11 11 8 14 13 14 13 14 15 16 15 15 15
14 11 11 12 13 12 16 5 9 7 15 18 18 14 14 19 24 21 18 12 8 14 13 9 5 4 2 1 3 7 6 6 11 11 12 13 13 12 14 15 15 15 15 16
17 11 9 8 10 14 10 10 12 10 15 17 14 11 11 18 20 19 14 6 11 11 7 6 5 1 3 2 6 1 5 8 10 11 13 11 11 13 14 14 15 14 14 15
14 13 8 10 10 14 6 10 14 17 19 19 21 20 20 17 18 14 10 15 14 10 9 7 4 2 2 5 0 4 6 8 11 10 12 13 13 12 13 15 14 13 13 14
9 3 7 10 3 6 11 13 16 20 19 20 19 19 17 17 17 10 6 11 11 10 7 5 3 1 4 2 3 4 6 10 10 9 12 12 12 12 13 14 14 14 14 14
4 4 9 3 13 9 12 13 16 20 20 19 17 19 20 16 16 16 16 13 10 7 7 3 1 2 2 1 3 5 6 9 7 9 11 11 14 13 13 14 14 14 13 13
5 2 7 8 7 8 14 16 19 20 22 19 18 17 15 13 11 13 13 10 9 8 5 2 1 1 1 1 2 5 6 9 8 9 11 12 12 14 14 13 14 14 13 12
3 2 7 11 9 13 13 14 9 14 16 14 15 13 14 16 14 12 10 9 7 6 4 2 4 2 2 3 2 5 5 8 8 10 10 10 10 11 14 14 12 12 12 13
8 9 9 12 15 15 14 14 12 12 14 13 13 12 12 10 11 9 8 6 4 5 4 2 3 4 4 4 4 5 6 7 9 10 10 10 12 11 11 12 12 11 13 12
Wind_Direction
260 266 260 234 210 217 217 230 230 244 246 245 238 228 206 197 195 182 183 182 187 188 188 188 189 193 195 201 206 206 211 229 243 257 267 277 284 289 291 293 298 303 303 299
258 255 254 261 259 236 217 228 239 246 260 244 258 257 248 195 202 210 201 187 190 185 180 191 187 190 192 200 199 209 218 236 249 258 270 277 283 286 294 302 306 306 301 305
274 264 253 243 245 246 239 224 223 227 240 219 253 238 254 250 197 191 181 186 183 185 184 184 191 185 191 196 196 210 224 237 256 268 272 281 285 297 303 310 311 306 304 306
270 269 246 247 232 242 243 240 231 243 254 249 242 238 232 165 182 177 174 182 168 166 166 180 189 186 185 188 194 208 227 248 260 268 278 286 301 304 308 308 306 306 306 304
264 250 272 251 233 218 214 244 234 236 251 253 250 249 233 174 170 176 175 165 153 159 166 175 177 176 182 185 199 219 237 253 260 270 286 302 305 306 306 305 306 305 304 305
269 263 249 234 239 200 143 254 191 236 251 250 239 240 242 180 170 156 135 135 140 157 163 163 166 172 173 181 201 220 237 250 257 277 291 295 297 299 300 303 306 305 304 306
257 277 299 317 255 168 214 260 190 264 254 244 219 224 166 135 133 133 131 135 148 154 154 159 168 173 174 192 207 225 239 248 267 277 289 293 295 298 302 306 308 304 310 312
236 245 264 344 332 28 325 335 347 338 350 219 123 109 106 114 124 133 135 138 146 144 151 160 167 174 185 199 214 232 239 248 265 280 287 286 293 298 303 306 302 305 310 313
251 245 240 285 249 318 325 316 327 340 339 16 108 111 122 128 136 149 144 144 149 151 153 160 172 184 191 205 217 232 242 262 276 279 283 290 292 298 300 309 307 319 316 323
269 251 254 278 301 280 312 304 305 314 323 346 339 144 133 138 146 151 149 149 154 154 155 167 180 188 201 215 228 238 254 269 281 287 288 289 289 297 301 298 326 327 319 311
279 275 287 262 287 273 247 254 271 265 264 289 297 252 153 147 150 159 158 155 161 160 168 175 181 190 200 209 226 248 270 281 284 287 293 294 297 296 298 290 321 317 302 295
265 291 298 287 287 291 259 242 249 276 309 237 210 216 190 161 159 163 160 155 158 167 170 172 178 185 202 218 225 244 265 278 288 290 294 298 300 298 290 301 313 303 296 292
266 276 272 275 276 270 268 278 269 254 243 257 238 222 189 170 164 158 150 156 160 165 173 176 177 181 205 224 239 251 266 278 289 293 295 290 289 309 327 312 306 303 300 298
271 276 286 286 274 271 264 256 269 265 246 233 217 205 188 163 145 156 159 168 165 169 168 170 165 190 220 234 249 267 275 284 290 288 288 301 320 316 307 299 303 304 303 305
262 259 261 268 271 272 272 275 253 259 254 211 184 179 164 162 158 165 157 160 158 159 158 165 180 198 221 239 257 279 292 292 289 293 301 300 303 301 295 298 296 306 309 308
280 270 272 264 274 289 277 265 262 256 186 139 154 164 162 158 145 142 148 150 145 151 170 180 197 193 190 222 272 288 288 285 296 313 312 304 297 291 295 295 310 309 307 311
289 325 356 344 327 320 295 285 273 206 171 161 173 167 150 147 140 135 138 150 156 179 178 170 164 170 176 232 284 291 303 325 318 304 302 298 296 299 309 304 295 292 294 298
334 304 313 300 294 293 296 273 259 191 172 168 165 171 157 155 155 140 140 158 171 167 172 174 163 158 188 280 282 312 309 296 296 295 307 327 320 305 296 300 299 305 301 304
307 282 284 293 293 295 290 285 246 177 154 153 159 175 170 153 141 145 162 168 171 171 167 153 158 188 209 130 347 290 292 311 320 335 328 318 309 306 308 293 297 297 304 310
306 294 277 276 282 300 297 221 129 124 148 166 180 176 157 154 147 157 160 157 150 130 132 136 145 159 170 156 276 293 320 337 332 329 320 312 311 312 304 299 297 292 297 299
306 295 297 324 313 296 297 180 161 156 156 162 158 140 126 124 134 142 148 137 131 137 139 134 141 128 150 274 312 330 356 344 333 320 306 304 310 313 308 300 297 297 299 306
304 305 313 318 303 281 168 155 152 137 135 127 131 139 136 134 130 127 140 140 143 137 136 140 132 175 268 311 298 350 345 336 328 318 320 317 311 304 306 303 293 295 304 308
309 336 314 286 269 47 92 110 111 119 129 138 140 137 133 134 141 132 125 130 142 134 134 129 154 276 329 143 360 356 341 329 327 321 336 331 325 328 316 311 306 296 296 309
15 349 290 91 85 101 107 118 122 113 116 125 125 127 130 117 94 114 130 136 127 121 122 132 130 14 45 14 4 357 338 338 340 346 349 336 333 324 324 319 315 311 312 314
58 38 53 82 82 86 93 111 119 115 104 102 94 100 115 134 119 130 131 125 109 111 118 123 61 34 1 320 333 347 341 346 346 346 341 344 339 331 322 323 308 312 307 314
95 68 79 82 92 101 108 103 95 104 108 106 98 96 100 110 115 121 116 113 119 108 116 91 49 3 355 326 338 351 346 343 330 342 335 327 333 337 338 331 319 311 323 309
108 107 97 82 81 88 90 96 102 102 102 104 106 108 107 108 104 108 111 103 103 94 79 45 7 3 348 347 317 325 333 334 329 329 331 338 333 318 331 336 334 317 321 314
Height
713 707 702 701 709 712 716 706 723 704 700 688 691 694 694 692 695 701 705 710 714 720 725 731 737 743 748 754 758 761 765 767 769 771 772 772 772 771 769 768 766 763 759 754
713 703 701 701 691 689 697 694 697 702 687 676 679 675 678 686 688 693 695 698 704 710 717 724 731 737 742 748 752 757 760 763 764 766 767 767 766 765 764 762 760 757 754 750
733 705 695 698 681 677 677 677 684 697 661 677 676 679 674 676 676 681 686 691 696 703 709 717 725 731 737 742 748 752 755 758 759 761 762 761 760 759 758 757 755 753 748 744
740 727 700 664 654 657 665 661 664 664 657 664 667 667 664 663 671 676 680 685 690 697 705 713 721 727 733 738 743 747 751 753 755 756 757 756 755 754 753 752 750 746 744 739
727 718 693 661 652 653 657 660 650 655 652 654 654 662 661 658 663 669 674 679 686 693 702 711 717 724 730 736 740 744 747 750 751 752 752 751 750 750 748 747 745 742 739 734
731 704 688 669 644 635 645 666 648 649 644 647 653 670 656 653 658 665 671 678 685 693 700 708 715 722 728 733 738 742 745 746 747 747 747 747 746 744 742 741 739 736 732 729
728 728 707 673 642 637 667 664 642 642 636 641 649 643 644 645 654 662 671 678 686 692 699 706 714 721 726 732 735 739 740 741 742 742 742 742 740 739 737 736 734 731 728 725
716 715 712 686 664 677 694 674 660 652 640 636 641 643 646 650 656 663 671 680 687 693 699 706 712 718 724 728 732 735 736 737 737 737 738 737 735 734 732 730 728 726 723 720
717 700 695 689 689 688 686 684 669 665 656 646 649 648 653 657 661 667 671 680 686 692 698 704 710 716 721 725 728 730 731 732 733 733 733 732 731 729 727 725 723 722 720 718
722 687 688 683 675 684 684 689 678 671 663 655 656 654 655 661 667 671 675 680 686 692 698 704 708 713 718 722 724 726 727 728 728 728 728 728 726 724 723 720 719 720 718 715
696 675 683 681 682 676 671 672 666 666 665 658 659 661 659 662 666 672 677 681 685 691 697 702 707 711 716 719 721 722 723 725 725 724 724 722 721 720 718 716 716 715 713 711
688 685 682 674 673 673 672 665 660 659 658 658 657 659 661 662 667 672 675 679 684 690 696 700 704 709 713 716 718 719 720 721 721 720 719 718 716 714 713 711 711 709 708 705
678 678 673 665 665 666 664 663 653 651 654 657 655 656 658 660 663 668 673 678 682 688 694 698 702 706 710 712 714 715 716 717 717 716 715 713 711 709 708 707 706 703 703 699
672 669 663 660 657 655 653 648 645 643 644 647 649 654 655 657 660 665 669 675 680 686 691 696 700 705 708 710 710 712 712 713 713 712 710 708 706 705 704 703 700 697 697 695
658 662 656 653 650 648 645 639 635 635 636 639 645 648 651 654 656 662 667 674 678 684 690 694 699 702 704 707 708 709 710 711 710 708 706 705 703 702 701 699 697 694 692 690
648 647 644 642 638 637 633 629 628 629 632 634 639 644 647 651 654 660 667 672 677 683 689 693 696 698 700 703 705 706 707 708 706 704 702 701 700 699 697 695 693 691 689 687
643 645 649 646 640 634 631 627 624 625 627 631 637 641 645 651 656 662 667 673 676 683 687 690 693 695 698 700 702 704 705 704 703 701 698 697 697 696 694 693 690 687 685 683
648 647 642 640 638 634 629 622 619 618 623 626 634 639 643 648 653 660 666 672 679 682 686 689 691 693 696 698 699 701 702 701 700 697 695 694 694 693 690 689 687 684 681 679
642 639 639 634 633 630 624 618 608 611 617 624 631 638 642 647 650 658 667 673 679 682 685 685 689 692 694 694 696 699 699 697 695 694 693 692 690 688 686 685 683 680 678 676
641 635 632 629 625 623 619 614 609 613 615 624 631 636 641 645 649 660 667 673 678 681 683 685 688 690 691 692 695 695 694 694 693 692 691 690 687 684 683 682 679 677 675 673
638 630 626 623 619 617 609 610 610 614 620 626 632 636 642 647 654 662 669 675 678 680 682 684 686 688 690 692 692 692 691 692 691 690 688 686 683 681 680 678 676 674 672 671
630 626 624 620 616 613 607 611 613 615 622 629 635 642 648 652 658 667 671 673 677 680 682 684 686 688 689 689 689 689 689 689 689 687 685 683 681 678 677 675 672 670 669 668
627 627 625 622 615 612 610 616 620 622 627 635 642 646 650 656 660 666 672 676 677 679 681 683 685 686 687 687 687 687 687 687 687 685 682 681 679 677 675 672 670 668 666 665
628 628 626 617 616 616 620 630 632 633 637 643 647 651 655 661 664 668 672 675 676 679 680 682 683 684 684 685 686 685 686 686 684 682 680 679 677 675 673 670 668 666 664 663
633 632 629 629 627 628 631 637 639 640 644 651 654 659 662 662 664 672 675 676 676 678 679 681 682 683 683 684 684 684 684 684 682 680 679 677 675 673 671 668 666 663 662 661
636 635 634 634 634 636 641 644 645 649 651 656 659 663 663 667 671 675 675 674 677 677 679 680 681 683 683 683 683 683 682 681 680 679 678 675 673 672 669 666 663 661 660 658
642 642 641 640 642 645 648 649 650 653 657 660 664 668 669 672 673 674 675 676 677 678 679 680 681 682 682 681 682 681 681 680 679 678 676 673 672 670 668 665 662 660 658 656